• MPC Preparation (Info)

  • MPEC 2010-Y36 : 2010 YS

    The following Minor Planet Electronic Circular may be linked-to from your own Web pages, but must not otherwise be redistributed electronically.

    A form allowing access to any MPEC is at the bottom of this page.


    Read MPEC 2010-Y35 Read MPEC 2010-Y37


    M.P.E.C. 2010-Y36                                Issued 2010 Dec. 29, 16:49 UT
    
         The Minor Planet Electronic Circulars contain information on unusual
             minor planets and routine data on comets.  They are published
       on behalf of Commission 20 of the International Astronomical Union by the
              Minor Planet Center, Smithsonian Astrophysical Observatory,
                              Cambridge, MA 02138, U.S.A.
    
                 Prepared using the Tamkin Foundation Computer Network
    
                                  MPC@CFA.HARVARD.EDU
           URL https://www.minorplanetcenter.org/iau/mpc.html  ISSN 1523-6714
    
                                        2010 YS
    
    Observations:
         K10Y00S* C2010 12 29.34697 10 09 46.80 +10 16 01.3          16.0 VrEY036703
         K10Y00S  C2010 12 29.35391 10 09 46.29 +10 20 21.9          16.1 VrEY036703
         K10Y00S  C2010 12 29.36095 10 09 45.75 +10 24 43.8          16.0 VrEY036703
         K10Y00S  C2010 12 29.36789 10 09 45.21 +10 29 02.5          16.1 VrEY036703
         K10Y00S  C2010 12 29.39098 10 09 43.30 +10 43 15.8          16.1 VrEY036703
         K10Y00S  C2010 12 29.39156 10 09 43.23 +10 43 37.3          16.1 VrEY036703
         K10Y00S  C2010 12 29.39212 10 09 43.20 +10 43 58.0          16.1 VrEY036703
         K10Y00S  C2010 12 29.39271 10 09 43.16 +10 44 19.4          16.1 VrEY036703
         K10Y00S  C2010 12 29.39431 10 09 43.02 +10 45 18.5          16.0 VrEY036703
         K10Y00S  C2010 12 29.39897 10 09 42.58 +10 48 09.1          16.1 VrEY036703
         K10Y00S  C2010 12 29.40365 10 09 42.19 +10 51 00.5          16.1 VrEY036703
         K10Y00S  C2010 12 29.40845 10 09 41.72 +10 53 55.8          16.1 VrEY036703
         K10Y00S  C2010 12 29.41644 10 09 41.00 +10 58 46.9          16.1 VrEY036703
         K10Y00S  C2010 12 29.41998 10 09 40.68 +11 00 56.3          16.1 VrEY036703
         K10Y00S  C2010 12 29.42351 10 09 40.35 +11 03 04.1          16.1 VrEY036703
         K10Y00S  C2010 12 29.42703 10 09 40.03 +11 05 11.7          16.1 VrEY036703
         K10Y00S  C2010 12 29.43709 10 09 39.06 +11 11 15.9          16.0 VrEY036703
         K10Y00S  C2010 12 29.44167 10 09 38.66 +11 14 00.1          15.9 VrEY036703
         K10Y00S  C2010 12 29.44623 10 09 38.19 +11 16 44.7          16.0 VrEY036703
         K10Y00S  C2010 12 29.62098 10 09 54.16 +12 57 17.4          16.6 VuEY036900
         K10Y00S  C2010 12 29.62367 10 09 54.03 +12 58 48.6          16.6 VuEY036900
         K10Y00S  C2010 12 29.62636 10 09 53.90 +13 00 19.8          16.6 VuEY036900
    
    Observer details:
    703 Catalina Sky Survey.  Observer A. D. Grauer.  Measurers J. D. Ahern,
        E. C. Beshore, A. Boattini, G. J. Garradd, A. R. Gibbs, A. D. Grauer,
        R. E. Hill, R. A. Kowalski, S. M. Larson, R. H. McNaught.  0.68-m Schmidt
        + CCD.
    900 Moriyama.  Observer Y. Ikari.  0.26-m f/7.0 reflector + CCD.
    
    Orbital elements:
    2010 YS                                             PHA, Earth MOID = 0.0113 AU
    Epoch 2011 Feb. 8.0 TT = JDT 2455600.5                  MPC
    M  18.15424              (2000.0)            P               Q
    n   0.27090209     Peri.  324.97497     +0.43028811     -0.87785641
    a   2.3655265      Node    98.71203     +0.86916042     +0.34000338
    e   0.6060416      Incl.   12.28302     +0.24374641     +0.33729191
    P   3.64           H   22.0           G   0.15           U   6
    Residuals in seconds of arc
    101229 703  0.3+  0.5-    101229 703  0.1+  0.3+    101229 703  0.1-  0.4+
    101229 703  0.1+  0.5+    101229 703  0.3-  0.1-    101229 703  0.5+  0.4-
    101229 703  0.1-  0.3-    101229 703  0.1+  0.1-    101229 703  0.0   0.2+
    101229 703  0.1-  0.3+    101229 703  0.4-  0.3-    101229 900  0.0   0.1-
    101229 703  0.0   0.0     101229 703  0.2-  0.4-    101229 900  0.0   0.0
    101229 703  0.3-  0.2+    101229 703  0.0   0.2+    101229 900  0.0   0.2+
    101229 703  0.0   0.3+    101229 703  0.0   0.1-
    101229 703  0.1+  0.0     101229 703  0.1+  0.1-
    
    Ephemeris:
    2010 YS                  a,e,i = 2.37, 0.61, 12                  q = 0.9319
    Date    TT    R. A. (2000) Decl.     Delta      r     Elong.  Phase     V
    2010 11 29    21 52 43.2 -58 21 06   0.1921  0.9336    68.6   100.4    21.9
    ...
    2010 12 14    22 09 32.3 -64 59 17   0.09048 0.9443    61.3   113.9    21.1
    ...
    2010 12 22    22 30 49.9 -83 16 49   0.03720 0.9681    64.2   113.8    19.2
    ...
    2010 12 28    10 08 51.9 -07 47 15   0.02110 0.9933   117.3    61.6    15.8
    2010 12 29    10 09 26.4 +06 27 47   0.02524 0.9980   124.8    54.0    16.0
    2010 12 30    10 09 45.8 +16 16 48   0.03049 1.0029   129.2    49.4    16.3
    ...
    2011 01 05    10 08 57.0 +38 14 31   0.06927 1.0353   137.2    40.2    17.9
    ...
    2011 01 13    10 04 04.8 +45 02 38   0.1258  1.0851   141.8    34.1    19.1
    ...
    2011 01 28    09 50 22.2 +47 34 31   0.2397  1.1938   147.4    26.4    20.5
    
    Carl W. Hergenrother         (C) Copyright 2010 MPC           M.P.E.C. 2010-Y36
    

    Read MPEC 2010-Y35 Read MPEC 2010-Y37


    MPEC number:

    Enter an MPEC number in one of the following forms:

    • 1997-B01 (the full form)
    • J97B01 (the packed version of the full form)
    • B01 (the abbreviated form)